FW7743 Weather Reports


time (UTC)temp
C
wind
direction
speed
KPH
gust
KPH
rain 1hr
cm
rain 24hr
cm
rain mn
cm
humidity
%
barometer
mb
20260509224346 12 199 4.8 8.0 0.00 0.00 0.00 88 1007.2
20260509223843 12 150 14.5 16.1 0.00 0.00 0.00 88 1007.2
20260509223340 12 165 6.4 8.0 0.00 0.00 0.00 88 1007.0
20260509222837 12 185 8.0 14.5 0.00 0.00 0.00 87 1006.9
20260509222332 12 195 22.5 29.0 0.00 0.00 0.00 87 1007.3
20260509221827 12 201 11.3 14.5 0.00 0.00 0.00 87 1007.4
20260509221325 12 223 9.7 12.9 0.00 0.00 0.00 87 1007.2
20260509220825 12 218 14.5 17.7 0.00 0.00 0.00 87 1007.1
20260509220321 12 195 14.5 16.1 0.00 0.00 0.00 88 1007.0
20260509215817 12 187 6.4 11.3 0.00 0.00 0.00 88 1007.0
20260509215314 13 165 8.0 11.3 0.00 0.00 0.00 87 1007.0
20260509214811 13 133 8.0 12.9 0.00 0.00 0.00 87 1006.7
20260509214308 12 159 11.3 14.5 0.00 0.00 0.00 87 1007.2
20260509213805 13 161 16.1 22.5 0.00 0.00 0.00 86 1006.9
20260509213301 13 187 17.7 25.7 0.00 0.00 0.00 86 1007.0
20260509212758 12 180 19.3 38.6 0.00 0.00 0.00 87 1007.1
20260509212255 12 209 11.3 11.3 0.00 0.00 0.00 87 1007.2
20260509211751 13 178 8.0 12.9 0.00 0.00 0.00 87 1007.4
20260509211248 13 195 11.3 14.5 0.00 0.00 0.00 86 1007.1
20260509210744 13 106 8.0 11.3 0.00 0.00 0.00 87 1007.2
20260509210242 12 166 12.9 16.1 0.00 0.00 0.00 87 1007.5
20260509205741 12 170 3.2 4.8 0.00 0.00 0.00 87 1007.5
20260509205236 12 181 8.0 12.9 0.00 0.00 0.00 87 1007.6
20260509204732 12 202 14.5 14.5 0.00 0.00 0.00 88 1007.6
20260509204229 12 200 9.7 14.5 0.00 0.00 0.00 87 1007.4
20260509203725 12 181 12.9 17.7 0.00 0.00 0.00 87 1007.5
20260509203223 12 120 8.0 9.7 0.00 0.00 0.00 87 1007.7
20260509202719 12 181 14.5 16.1 0.00 0.00 0.00 87 1007.7
20260509202214 12 156 1.6 8.0 0.00 0.00 0.00 88 1007.7
20260509201709 12 184 11.3 12.9 0.00 0.00 0.00 89 1007.6
20260509201207 12 187 14.5 17.7 0.00 0.00 0.00 89 1007.6
20260509200703 12 180 9.7 16.1 0.00 0.00 0.00 88 1007.6
20260509200157 12 195 9.7 12.9 0.00 0.00 0.00 88 1007.9
20260509195654 12 195 12.9 16.1 0.00 0.00 0.00 88 1008.0
20260509195149 12 182 9.7 14.5 0.00 0.00 0.00 88 1008.0
20260509194649 12 190 9.7 11.3 0.00 0.00 0.00 88 1008.3
20260509194146 12 183 8.0 9.7 0.00 0.00 0.00 88 1008.0
20260509193642 12 211 6.4 11.3 0.00 0.00 0.00 87 1008.3
20260509193138 12 164 4.8 8.0 0.00 0.00 0.00 87 1008.0
20260509192635 12 188 4.8 4.8 0.00 0.00 0.00 87 1008.1
20260509192129 12 227 4.8 4.8 0.00 0.00 0.00 87 1008.1
20260509191624 12 180 11.3 12.9 0.00 0.00 0.00 87 1008.4
20260509191121 12 210 9.7 11.3 0.00 0.00 0.00 87 1008.1
20260509190617 12 176 4.8 8.0 0.00 0.00 0.00 87 1008.5
20260509190115 12 213 4.8 4.8 0.00 0.00 0.00 86 1008.4
20260509185612 12 123 4.8 8.0 0.00 0.00 0.00 86 1008.4
20260509185108 12 216 8.0 11.3 0.00 0.00 0.00 87 1008.5
20260509184607 12 164 1.6 3.2 0.00 0.00 0.00 87 1008.5
20260509184103 12 174 11.3 11.3 0.00 0.00 0.00 87 1008.6
20260509183558 12 198 12.9 16.1 0.00 0.00 0.00 88 1008.5
20260509183054 12 225 6.4 8.0 0.00 0.00 0.00 88 1008.6
20260509182551 12 151 12.9 14.5 0.00 0.00 0.00 88 1008.8
20260509182048 12 202 1.6 1.6 0.00 0.00 0.00 88 1008.7
20260509181546 12 196 8.0 9.7 0.00 0.00 0.00 89 1008.6
20260509181043 12 206 4.8 4.8 0.00 0.00 0.00 89 1008.8
20260509180538 12 180 6.4 8.0 0.00 0.00 0.00 90 1008.8
20260509180036 12 171 4.8 9.7 0.00 0.00 0.00 90 1008.5
20260509175531 11 169 11.3 12.9 0.00 0.00 0.00 90 1008.6
20260509175029 11 184 4.8 4.8 0.00 0.00 0.00 91 1008.7
20260509174526 11 158 6.4 8.0 0.00 0.00 0.00 91 1008.8
20260509174020 11 193 4.8 4.8 0.00 0.00 0.00 91 1008.7
20260509173515 11 180 9.7 12.9 0.00 0.00 0.00 92 1008.5
20260509173011 11 151 8.0 11.3 0.00 0.00 0.00 92 1008.9
20260509172508 11 169 6.4 8.0 0.00 0.00 0.00 92 1008.8
20260509172004 11 126 3.2 3.2 0.00 0.00 0.00 91 1008.6
20260509171500 11 176 6.4 9.7 0.00 0.00 0.00 92 1008.6
20260509170957 11 215 9.7 12.9 0.00 0.00 0.00 92 1008.9
20260509170452 11 174 6.4 9.7 0.00 0.00 0.00 92 1008.7
20260509165948 11 189 4.8 8.0 0.00 0.00 0.00 92 1008.9
20260509165447 11 117 3.2 4.8 0.00 0.00 0.00 92 1008.8
20260509164943 11 191 8.0 9.7 0.00 0.00 0.00 92 1008.9
20260509164439 11 202 3.2 3.2 0.00 0.00 0.00 92 1008.9
20260509163935 10 202 8.0 12.9 0.00 0.00 0.00 92 1008.9
20260509163433 10 134 6.4 8.0 0.00 0.00 0.00 92 1009.0
20260509162932 10 182 8.0 11.3 0.00 0.00 0.00 92 1009.0
20260509162431 10 178 4.8 4.8 0.00 0.00 0.00 93 1009.1
20260509161926 10 187 8.0 8.0 0.00 0.00 0.00 93 1009.5
20260509161423 10 189 8.0 14.5 0.00 0.00 0.00 93 1009.3
20260509160918 10 210 4.8 8.0 0.00 0.00 0.00 93 1009.2
20260509160414 10 138 6.4 8.0 0.00 0.00 0.00 93 1009.2
20260509155909 10 218 6.4 9.7 0.00 0.00 0.00 93 1009.1
20260509155407 10 191 11.3 12.9 0.00 0.00 0.00 93 1009.3
20260509154903 10 166 6.4 9.7 0.00 0.00 0.00 93 1009.3
20260509154359 10 189 6.4 8.0 0.00 0.00 0.00 94 1009.5
20260509153856 10 216 6.4 8.0 0.00 0.00 0.00 94 1009.4
20260509153354 10 181 6.4 9.7 0.00 0.00 0.00 94 1009.4
20260509152850 10 182 9.7 11.3 0.00 0.00 0.00 94 1009.5
20260509152346 10 212 4.8 8.0 0.00 0.00 0.00 95 1009.5
20260509151844 10 192 1.6 3.2 0.00 0.00 0.00 95 1009.6
20260509151339 9 187 8.0 9.7 0.00 0.00 0.00 95 1009.8
20260509150838 9 210 8.0 9.7 0.00 0.00 0.00 95 1009.8
20260509150335 9 147 3.2 3.2 0.00 0.00 0.00 95 1009.8
20260509145833 9 197 6.4 9.7 0.00 0.00 0.00 95 1009.9
20260509145327 9 192 8.0 9.7 0.00 0.00 0.00 95 1009.6
20260509144824 9 196 3.2 3.2 0.00 0.00 0.00 96 1009.9
20260509144321 9 169 4.8 8.0 0.00 0.00 0.00 95 1009.7
20260509143818 10 203 8.0 12.9 0.00 0.00 0.00 96 1009.8
20260509143316 9 208 4.8 4.8 0.00 0.00 0.00 96 1009.8
20260509142811 9 130 8.0 11.3 0.00 0.00 0.00 96 1009.7
20260509142308 9 184 6.4 9.7 0.00 0.00 0.00 97 1009.8
20260509141803 9 207 4.8 4.8 0.00 0.00 0.00 97 1009.9
20260509141300 9 211 4.8 4.8 0.00 0.00 0.00 97 1009.9
20260509140757 9 189 1.6 3.2 0.00 0.00 0.00 97 1009.7
20260509140254 8 168 3.2 3.2 0.00 0.00 0.00 97 1009.7
20260509135752 8 159 4.8 4.8 0.00 0.00 0.00 97 1010.1
20260509135249 8 195 4.8 4.8 0.00 0.00 0.00 97 1009.9
20260509134746 8 224 4.8 4.8 0.00 0.00 0.00 97 1010.0
20260509134244 8 193 8.0 11.3 0.00 0.00 0.00 97 1010.0
20260509133740 8 185 3.2 3.2 0.00 0.00 0.00 97 1010.0
20260509133237 8 216 4.8 8.0 0.00 0.00 0.00 97 1010.2
20260509132736 8 142 1.6 3.2 0.00 0.00 0.00 97 1010.1
20260509132234 8 215 4.8 8.0 0.00 0.00 0.00 97 1010.1
20260509131730 8 201 4.8 8.0 0.00 0.00 0.00 97 1010.1
20260509131227 8 188 4.8 4.8 0.00 0.00 0.00 97 1010.2
20260509130723 8 224 12.9 16.1 0.00 0.00 0.00 97 1010.2
20260509130219 8 202 12.9 14.5 0.00 0.00 0.00 97 1010.3
20260509125716 8 191 9.7 12.9 0.00 0.00 0.00 97 1010.2
20260509125213 8 183 3.2 4.8 0.00 0.00 0.00 97 1010.3
20260509124709 8 121 6.4 8.0 0.00 0.00 0.00 96 1010.2
20260509124206 8 182 3.2 4.8 0.00 0.00 0.00 96 1010.4
20260509123704 7 173 4.8 8.0 0.00 0.00 0.00 96 1010.3
20260509123201 7 187 4.8 4.8 0.00 0.00 0.00 96 1010.4
20260509122656 7 180 8.0 9.7 0.00 0.00 0.00 96 1010.6
20260509122154 7 170 4.8 4.8 0.00 0.00 0.00 96 1010.4
20260509121650 7 181 9.7 12.9 0.00 0.00 0.00 95 1010.7
20260509121148 7 188 6.4 8.0 0.00 0.00 0.00 95 1010.7
20260509120646 7 199 9.7 11.3 0.00 0.00 0.00 95 1010.5
20260509120144 7 194 8.0 9.7 0.00 0.00 0.00 95 1010.7
20260509115641 7 167 12.9 14.5 0.00 0.00 0.00 95 1010.6
20260509115138 7 216 6.4 8.0 0.00 0.00 0.00 95 1010.7
20260509114636 7 209 11.3 12.9 0.00 0.00 0.00 94 1010.8
20260509114135 7 189 11.3 12.9 0.00 0.00 0.00 94 1010.5
20260509113633 7 185 9.7 11.3 0.00 0.00 0.00 94 1010.9
20260509113130 7 224 6.4 8.0 0.00 0.00 0.00 94 1010.8
20260509112627 7 185 3.2 4.8 0.00 0.00 0.00 94 1010.9
20260509112124 7 174 4.8 8.0 0.00 0.00 0.00 93 1011.1
20260509111620 7 169 3.2 3.2 0.00 0.00 0.00 93 1010.8
20260509111117 7 127 4.8 4.8 0.00 0.00 0.00 92 1010.8
20260509110615 6 190 1.6 3.2 0.00 0.00 0.00 92 1010.8
20260509110112 6 193 6.4 8.0 0.00 0.00 0.00 92 1010.9
20260509105610 6 163 6.4 8.0 0.00 0.00 0.00 92 1010.7
20260509105107 6 172 3.2 8.0 0.00 0.00 0.00 92 1010.7
20260509104604 6 178 8.0 11.3 0.00 0.00 0.00 92 1010.8
20260509104100 6 182 6.4 8.0 0.00 0.00 0.00 91 1010.5
20260509103558 6 201 4.8 8.0 0.00 0.00 0.00 91 1010.7
20260509103056 6 173 8.0 11.3 0.00 0.00 0.00 90 1010.8
20260509102553 6 189 8.0 11.3 0.00 0.00 0.00 90 1010.8
20260509102050 6 184 6.4 8.0 0.00 0.00 0.00 89 1010.8
20260509101546 6 197 8.0 9.7 0.00 0.00 0.00 88 1010.5
20260509101043 7 174 11.3 12.9 0.00 0.00 0.00 88 1010.7
20260509100540 7 235 6.4 8.0 0.00 0.00 0.00 87 1010.6
20260509100038 6 200 9.7 11.3 0.00 0.00 0.00 87 1010.7
20260509095534 6 185 3.2 4.8 0.00 0.00 0.00 87 1010.4
20260509095032 6 172 4.8 9.7 0.00 0.00 0.00 86 1010.5
20260509094528 6 177 4.8 8.0 0.00 0.00 0.00 86 1010.5
20260509094025 6 187 3.2 4.8 0.00 0.00 0.00 85 1010.5
20260509093524 6 167 4.8 4.8 0.00 0.00 0.00 86 1010.5
20260509093021 6 199 6.4 8.0 0.00 0.00 0.00 86 1010.2
20260509092519 6 181 3.2 4.8 0.00 0.00 0.00 86 1010.6
20260509092017 6 199 3.2 3.2 0.00 0.00 0.00 85 1010.3
20260509091514 6 220 6.4 8.0 0.00 0.00 0.00 85 1010.6
20260509091010 6 215 3.2 3.2 0.00 0.00 0.00 85 1010.6
20260509090508 6 204 3.2 3.2 0.00 0.00 0.00 85 1010.6
20260509090006 6 169 3.2 3.2 0.00 0.00 0.00 84 1010.5
20260509085502 6 201 1.6 1.6 0.00 0.00 0.00 83 1010.7
20260509084958 6 257 1.6 3.2 0.00 0.00 0.00 83 1010.7
20260509084455 7 192 6.4 8.0 0.00 0.00 0.00 82 1010.9
20260509083953 7 201 3.2 3.2 0.00 0.00 0.00 82 1011.1
20260509083450 6 196 4.8 8.0 0.00 0.00 0.00 82 1011.1
20260509082946 7 177 4.8 9.7 0.00 0.00 0.00 81 1010.9
20260509082444 7 179 6.4 8.0 0.00 0.00 0.00 80 1010.9
20260509081941 7 179 4.8 8.0 0.00 0.00 0.00 80 1011.2
20260509081438 7 183 6.4 8.0 0.00 0.00 0.00 78 1011.1
20260509080935 7 236 4.8 4.8 0.00 0.00 0.00 78 1011.2
20260509080433 7 199 8.0 11.3 0.00 0.00 0.00 78 1011.1
20260509075931 7 201 6.4 8.0 0.00 0.00 0.00 77 1011.1
20260509075428 7 182 4.8 8.0 0.00 0.00 0.00 77 1011.2
20260509074926 7 207 3.2 3.2 0.00 0.00 0.00 75 1011.2
20260509074423 7 161 8.0 9.7 0.00 0.00 0.00 75 1011.1
20260509073919 7 194 11.3 12.9 0.00 0.00 0.00 74 1011.2
20260509073416 7 213 9.7 11.3 0.00 0.00 0.00 73 1011.5
20260509072912 7 126 11.3 12.9 0.00 0.00 0.00 72 1011.2
20260509072409 7 216 4.8 4.8 0.00 0.00 0.00 72 1011.3
20260509071905 7 190 6.4 8.0 0.00 0.00 0.00 69 1011.2
20260509071403 7 222 6.4 8.0 0.00 0.00 0.00 67 1011.5
20260509070900 7 221 6.4 9.7 0.00 0.00 0.00 67 1011.3
20260509070356 7 224 6.4 8.0 0.00 0.00 0.00 66 1011.5
20260509065852 7 187 6.4 9.7 0.00 0.00 0.00 66 1011.5
20260509065349 7 192 8.0 11.3 0.00 0.00 0.00 67 1011.6
20260509064844 7 210 3.2 3.2 0.00 0.00 0.00 67 1011.7
20260509064342 7 187 6.4 8.0 0.00 0.00 0.00 65 1011.6
20260509063840 7 201 3.2 3.2 0.00 0.00 0.00 65 1011.5
20260509063336 7 237 4.8 8.0 0.00 0.00 0.00 66 1011.5
20260509062833 6 215 4.8 8.0 0.00 0.00 0.00 70 1011.5
20260509062330 5 200 3.2 3.2 0.00 0.00 0.00 73 1011.6
20260509061827 5 187 3.2 3.2 0.00 0.00 0.00 78 1011.8
20260509061326 5 186 3.2 4.8 0.00 0.00 0.00 78 1011.6
20260509060822 5 200 3.2 3.2 0.00 0.00 0.00 79 1011.9
20260509060319 5 194 1.6 3.2 0.00 0.00 0.00 78 1011.8
20260509055814 5 195 1.6 3.2 0.00 0.00 0.00 81 1012.1
20260509055310 4 191 3.2 3.2 0.00 0.00 0.00 82 1012.1
20260509054808 4 193 3.2 3.2 0.00 0.00 0.00 87 1012.4
20260509054304 3 196 1.6 1.6 0.00 0.00 0.00 89 1012.3
20260509053802 3 203 3.2 4.8 0.00 0.00 0.00 92 1012.3
20260509053259 3 203 1.6 3.2 0.00 0.00 0.00 93 1012.3
20260509052757 3 200 1.6 3.2 0.00 0.00 0.00 93 1012.5
20260509052254 3 205 1.6 1.6 0.00 0.00 0.00 92 1012.4
20260509051752 4 200 1.6 1.6 0.00 0.00 0.00 91 1012.4
20260509051250 5 194 1.6 1.6 0.00 0.00 0.00 91 1012.5
20260509050746 5 210 0.0 0.0 0.00 0.00 0.00 91 1012.4
20260509050243 5 204 0.0 1.6 0.00 0.00 0.00 90 1012.4
20260509045740 5 213 0.0 0.0 0.00 0.00 0.00 89 1012.7
20260509045237 5 199 0.0 0.0 0.00 0.00 0.00 88 1012.9
20260509044734 5 187 1.6 1.6 0.00 0.00 0.00 88 1012.8
20260509044232 5 186 3.2 3.2 0.00 0.00 0.00 89 1012.9
20260509043728 5 197 3.2 4.8 0.00 0.00 0.00 89 1012.6
20260509043224 5 189 1.6 3.2 0.00 0.00 0.00 89 1012.7
20260509042721 5 190 0.0 0.0 0.00 0.00 0.00 89 1012.7
20260509042217 5 204 0.0 0.0 0.00 0.00 0.00 88 1012.8
20260509041714 5 197 1.6 1.6 0.00 0.00 0.00 88 1012.8
20260509041211 5 214 1.6 3.2 0.00 0.00 0.00 88 1012.6
20260509040709 4 207 1.6 3.2 0.00 0.00 0.00 86 1012.6
20260509040206 4 205 3.2 3.2 0.00 0.00 0.00 84 1012.7
20260509035702 4 203 1.6 1.6 0.00 0.00 0.00 83 1012.5
20260509035159 4 203 3.2 3.2 0.00 0.00 0.00 84 1012.8
20260509034657 3 211 0.0 0.0 0.00 0.00 0.00 87 1012.6
20260509034154 4 201 1.6 1.6 0.00 0.00 0.00 87 1012.7
20260509033651 4 200 1.6 1.6 0.00 0.00 0.00 85 1012.7
20260509033148 5 192 1.6 1.6 0.00 0.00 0.00 84 1012.8
20260509032645 3 219 4.8 4.8 0.00 0.00 0.00 88 1012.9
20260509032142 3 194 1.6 1.6 0.00 0.00 0.00 86 1012.6
20260509031639 4 207 0.0 0.0 0.00 0.00 0.00 84 1012.8
20260509031136 5 242 0.0 0.0 0.00 0.00 0.00 82 1012.7
20260509030635 5 210 0.0 1.6 0.00 0.00 0.00 83 1012.7
20260509030132 4 195 3.2 3.2 0.00 0.00 0.00 86 1012.7
20260509025628 4 205 0.0 0.0 0.00 0.00 0.00 84 1012.8
20260509025124 4 209 0.0 0.0 0.00 0.00 0.00 82 1012.6
20260509024619 4 215 0.0 0.0 0.00 0.00 0.00 80 1012.7
20260509024115 4 211 0.0 0.0 0.00 0.00 0.00 79 1012.9
20260509023614 4 215 0.0 0.0 0.00 0.00 0.00 81 1012.9
20260509023110 4 217 0.0 0.0 0.00 0.00 0.00 83 1012.7
20260509022607 5 204 0.0 0.0 0.00 0.00 0.00 81 1012.9
20260509022105 5 208 1.6 3.2 0.00 0.00 0.00 79 1013.1
20260509021601 4 181 1.6 3.2 0.00 0.00 0.00 81 1013.2
20260509021058 5 205 1.6 1.6 0.00 0.00 0.00 80 1013.1
20260509020557 5 215 0.0 0.0 0.00 0.00 0.00 76 1013.0
20260509020053 5 229 3.2 3.2 0.00 0.00 0.00 77 1013.0
20260509015552 4 222 3.2 4.8 0.00 0.00 0.00 80 1013.1
20260509015049 4 200 0.0 0.0 0.00 0.00 0.00 81 1013.0
20260509014545 4 234 0.0 0.0 0.00 0.00 0.00 81 1012.8
20260509014042 4 235 0.0 0.0 0.00 0.00 0.00 81 1012.5
20260509013539 5 222 0.0 0.0 0.00 0.00 0.00 81 1012.5
20260509013034 5 236 0.0 0.0 0.00 0.00 0.00 81 1012.6
20260509012531 5 237 0.0 0.0 0.00 0.00 0.00 79 1012.6
20260509012028 5 252 0.0 0.0 0.00 0.00 0.00 77 1012.7
20260509011526 5 249 3.2 3.2 0.00 0.00 0.00 77 1012.4
20260509011023 5 263 0.0 0.0 0.00 0.00 0.00 81 1012.5
20260509010521 5 220 0.0 0.0 0.00 0.00 0.00 82 1012.4
20260509010017 4 216 0.0 0.0 0.00 0.00 0.00 83 1012.4
20260509005515 4 276 0.0 0.0 0.00 0.00 0.00 82 1012.2
20260509005015 4 276 0.0 0.0 0.00 0.00 0.00 82 1012.1
20260509004512 5 277 0.0 0.0 0.00 0.00 0.00 82 1012.0
20260509004009 5 277 0.0 0.0 0.00 0.00 0.00 81 1012.2
20260509003508 5 278 0.0 0.0 0.00 0.00 0.00 80 1012.2
20260509003004 5 281 0.0 0.0 0.00 0.00 0.00 80 1012.0
20260509002503 5 274 0.0 0.0 0.00 0.00 0.00 79 1012.0
20260509001959 5 289 0.0 0.0 0.00 0.00 0.00 78 1011.9
20260509001456 6 287 0.0 0.0 0.00 0.00 0.00 78 1011.8
20260509000952 6 271 1.6 1.6 0.00 0.00 0.00 78 1012.0
20260509000451 6 278 3.2 3.2 0.00 0.00 0.00 77 1011.9
20260508235946 6 277 3.2 3.2 0.00 0.00 0.00 78 1011.8
20260508235444 6 274 3.2 3.2 0.00 0.00 0.00 78 1011.8
20260508234940 6 276 3.2 3.2 0.00 0.00 0.00 77 1011.7
20260508234437 7 274 3.2 3.2 0.00 0.00 0.00 76 1011.7
20260508233935 7 280 0.0 0.0 0.00 0.00 0.00 75 1011.5
20260508233435 7 277 0.0 0.0 0.00 0.00 0.00 73 1011.5
20260508232930 7 286 0.0 0.0 0.00 0.00 0.00 69 1011.6
20260508232428 7 282 0.0 0.0 0.00 0.00 0.00 66 1011.5
20260508231925 7 283 0.0 0.0 0.00 0.00 0.00 64 1011.5
20260508231422 7 302 0.0 0.0 0.00 0.00 0.00 64 1011.6
20260508230919 8 269 0.0 0.0 0.00 0.00 0.00 66 1011.6
20260508230415 8 279 0.0 0.0 0.00 0.00 0.00 60 1011.5
20260508225913 8 269 0.0 1.6 0.00 0.00 0.00 60 1011.6
20260508225409 8 297 0.0 0.0 0.00 0.00 0.00 61 1011.5
20260508224907 8 285 0.0 0.0 0.00 0.00 0.00 59 1011.8